Погода на Куджак-Айленд

Канада     57°14′28″N   154°07′07″W
темп.,
°C
ветер,
м/с
пор.,
м/с
влажн.,
%
обл.,
%
осадки,
мм/ч
давл.,
гПа
погр.,
м
18 августа, чт
чт1823:00+10юз357382 0.1 1005910
02:00+6ююв3392100 0.2 100823
05:00+7ююв2295100 0.0 101152
08:00+8ююв2398100 0.3 1012110
11:00+8юв2296100 0.1 101259
14:00+9юв2295100 0.1 1014136
17:00+10юв2292100 0.1 1014175
20:00+11юв2289100 0.2 1014276
19 августа, пт
пт1923:00+10юв2297100 0.3 1014126
02:00+10юв2399100 0.6 1014108
05:00+10юв3399100 0.6 1013133
08:00+10юв3499100 2.5 1012146
11:00+10юв3499100 2.9 1011170
14:00+10юв3599100 9.4 1010252
17:00+10юв4799100 6.8 1009329
20:00+10юв3498100 9.6 1008230
20 августа, сб
сб2023:00+10юв3499100 2.6 1008176
02:00+10юв3399100 3.1 1007134
05:00+10вюв3399100 0.5 1007139
08:00+11вюв3399100 1.9 1006132
11:00+10вюв3399100 2.6 1005142
14:00+10вюв2399100 6.3 1005160
17:00+11вюв3498100 2.1 1004209
20:00+11в3497100 7.1 1003213
21 августа, вс
вс2123:00+11в3597100 4.1 1003387
02:00+10в2298100 5.9 100394
05:00+10вюв2298100 1.8 100371
08:00+10в2296100 1.9 100337
11:00+10в2297100 0.3 100248
14:00+11всв2296100 0.8 1002112
17:00+11вюв2597100 1.5 1003400
20:00+12всв2591100 2.6 1002434
22 августа, пн
пн2223:00+11всв1198100 4.2 100138
02:00+11св2295100 4.5 100140
05:00+11в2298100 5.7 100153
08:00+10в1198100 8.1 100140
11:00+10в1195100 0.6 100111
14:00+12ююв228974 1.1 1002176
17:00+14ююв347439 1.5 1004973
20:00+14юв346726 2.3 10051102